Regional Weather Roundup
Issued by NWS Spokane, WA

Home | Current Version | Previous Version | Text Only | Print | Product List | Glossary On
Versions: 1 2 3 4 5 6 7 8 9 10 11 12 13 14 15 16 17 18 19 20 21 22 23 24 25 26 27 28 29 30 31 32 33 34 35 36 37 38 39 40 41 42 43 44 45 46 47 48 49 50
349
NZUS01 KOTX 180825
RWROTX

Eastern Washington/Northern Idaho Roundup
National Weather Service, Spokane WA
1200 AM PST WED JAN 18 2017

Note: "fair" indicated few or no clouds below 12,000 feet with no
significant weather and/or obstructions to visibility.

...Northeast Washington and Northern Idaho Panhandle...

CITY           SKY/WX    TMP DP  RH WIND       PRES   REMARKS
Spokane Intl   FRZ RAIN  29  28  96 E3        29.77S FOG
Spokane Downto LGT SNOW  32  31  96 CALM      29.80S FOG
Coeur d Alene  LGT SNOW  29  28  96 CALM      29.79F FOG
Deer Park      LGT SNOW  29  27  92 CALM      29.79S VSB 1
Sandpoint      LGT SNOW  28  28 100 CALM      29.80F
Bonners Ferry  LGT SNOW  27  25  93 E3        29.79F

...Southeast Washington and southern Idaho Panhandle...

CITY           SKY/WX    TMP DP  RH WIND       PRES   REMARKS
Walla Walla    FRZ RAIN  22  18  85 N3        29.78F FOG
Pullman/Moscow FRZ RAIN  31  23  72 SE25G33   29.80F WCI  17
Lewiston       CLOUDY    35  22  58 E7        29.86F WCI  29
Lowell           N/A     28  24  85 NW5       29.94S WCI  23
Grangeville    CLOUDY    37  19  48 CALM      29.81F

...Columbia Basin...

CITY           SKY/WX    TMP DP  RH WIND       PRES   REMARKS
Ephrata        MIX PCPN  25  19  78 CALM      29.77F
Moses Lake     FRZ RAIN  25  22  88 CALM      29.79F FOG
Pasco          FRZ RAIN  23  22  96 W6        29.85F FOG     WCI  16
Richland       LGT SNOW  24  22  93 NW5       29.85F WCI  18
Hermiston      MIX PCPN  22  19  89 W7        29.81F FOG     WCI  13
Pendleton      FRZ RAIN  23  22  96 NW13      29.73F FOG     WCI  11

...East Slopes Cascades...

CITY           SKY/WX    TMP DP  RH WIND       PRES   REMARKS
The Dalles     MIX PCPN  23  18  81 CALM      29.84F
Yakima         CLOUDY    23  18  81 CALM      29.79F HAZE
Ellensburg     CLOUDY    23  17  78 CALM      29.74F
Wenatchee      CLOUDY    18  16  92 W6        29.80F FOG     WCI  10
Omak           LGT SNOW  22  18  85 SE8       29.78F VSB 1   WCI  12
Sunnyside      CLOUDY    19  17  88 CALM      29.81F FOG

...Southern British Columbia...

CITY           SKY/WX    TMP DP  RH WIND       PRES   REMARKS
Penticton      CLOUDY    32  25  74 S16G25    29.70S WCI  21
Cranbrook      FLURRIES  32  28  86 S10       29.73F WCI  24
Osoyoos          N/A     27  23  86 S13         N/A  WCI  16
Creston          N/A     27  27 100 E2          N/A

...Western Montana...

CITY           SKY/WX    TMP DP  RH WIND       PRES   REMARKS
Kalispell      CLOUDY    21  18  88 CALM      29.80F
Missoula       CLOUDY    12   9  87 CALM      29.88S

...Neighboring Cities...

CITY           SKY/WX    TMP DP  RH WIND       PRES   REMARKS
Seattle        LGT RAIN  47  47 100 SE10      29.52F
Portland       LGT RAIN  33  32  96 SE9       29.61F FOG     WCI  25
Boise          MOCLDY     9   4  80 CALM      30.14F HAZE
Great Falls    CLOUDY    39  26  59 S10       29.68S
Calgary        PTCLDY    32  28  86 N8        29.32  WCI  25



USA.gov is the U.S. government's official web portal to all federal, state and local government web resources and services.